LICJLIRE

Guest
Details From LICJ - Palermo
To LIRE - Pratica Di Mare
Flight Number -
Tags Generated
Created
Modified
Stats Distance 212 nm / 393 km
Max Altitude 0 ft / 0 m
Waypoints 2
Social Downloads 1
Likes 0
Share VATSIM

Download

Looking for another format? Having issues loading an existing format? Contact us
Advertisement - Login to hide

Notes

Generated

Route

LICJ LIRE

ID Type Via Altitude Latitude Longitude Leg Dist Tot Dist Heading (true) Name
O LICJ APT - 0 ft / 0 m 38.16614˚ 13.08562˚ - 0 nm - -
O LIRE APT - 0 ft / 0 m 41.66242˚ 12.43448˚ 212 nm 212 nm 352° / 352° -

Altitude Profile

Advertisement - Login to hide

Weather


0- 5 10 15 20 25 30 35+ Temperature / ° C

Clouds and Precipitation
Forecast for 2017-12-16 12:00 UTC. Updated 2 hours ago

Ground ~20,000 ft ~40,000 ft Winds

LICJ

Details ICAO LICJ (PMO)
Name PALERMO
Region Italy
Timezone Europe/Rome (UTC+1.0)
Stats Elevation 65 ft / 20 m (AMSL)
Location 38.177377° 13.097035°
Runways 2
Magnetic Variation 2.950° E

METAR

LICJ 161250Z 30017KT 9999 SCT050 14/07 Q1009

Decode

TAF

TAF LICJ 161100Z 1612/1712 29015KT 9999 SCT030 TEMPO 1612/1620 RA BECMG 1620/1622 29020G30KT

Decode

Departure Runways

ID Width Length Bearing (true) Bearing (mag) Surface Threshold Offset Overrun Length
02 148 ft / 45 m 6,813 ft / 2,077 m 23.81° 20.86° Asphalt 10 ft / 3 m 0 ft / 0 m
07 197 ft / 60 m 10,685 ft / 3,257 m 66.82° 63.87° Asphalt 404 ft / 123 m 0 ft / 0 m
20 148 ft / 45 m 6,813 ft / 2,077 m 203.81° 200.86° Asphalt 10 ft / 3 m 0 ft / 0 m
25 197 ft / 60 m 10,685 ft / 3,257 m 246.85° 243.90° Asphalt 679 ft / 207 m 0 ft / 0 m

LIRE

Details ICAO LIRE
Name Pratica Di Mare
Region Italy
Timezone Europe/Rome (UTC+1.0)
Stats Elevation 39 ft / 12 m (AMSL)
Location 41.654524° 12.445184°
Runways 2
Magnetic Variation 3.024° E

METAR

LIRE 161255Z 25017KT 9999 SCT025 SCT060 13/05 Q1006 RMK BKN VIS MIN 9999 WIND THR13 25015KT WIND THR31 25019KT BLU

Decode

TAF

Not found

Destination Runways

ID Width Length Bearing (true) Bearing (mag) Surface Threshold Offset Overrun Length
13 148 ft / 45 m 8,340 ft / 2,542 m 130.05° 127.03° Asphalt 500 ft / 152 m 0 ft / 0 m
13L 98 ft / 30 m 8,135 ft / 2,479 m 130.02° 127.00° Asphalt 430 ft / 131 m 0 ft / 0 m
31 148 ft / 45 m 8,340 ft / 2,542 m 310.07° 307.05° Asphalt 350 ft / 107 m 700 ft / 213 m
31R 98 ft / 30 m 8,135 ft / 2,479 m 310.03° 307.01° Asphalt 430 ft / 131 m 0 ft / 0 m

Approach Navaids

Runway Type Ident Frequency Range Bearing (true) Bearing (mag) Slope Elevation
31 Localiser PRA 109.55 MHz 18 nm / 33 km 310.02° 306.99° - 39 ft / 12 m (AMSL)
31 Glidescope PRA 109.55 MHz 10 nm / 19 km 310.06° 307.03° 3.00° 82 ft / 25 m (AMSL)
31 DME PRA 109.55 MHz 18 nm / 33 km - - - 82 ft / 25 m (AMSL)

Popular Alternatives